Regional Weather Roundup
Issued by NWS Northern Indiana

Home | Current Version | Previous Version | Text Only | Print | Product List | Glossary Off
Versions: 1 2 3 4 5 6 7 8 9 10 11 12 13 14 15 16 17 18 19 20 21 22 23 24 25 26 27 28 29 30 31 32 33 34 35 36 37 38 39 40 41 42 43 44 45 46 47 48 49 50

000
ASUS43 KIWX 261710
RWRIWX

KIWX WEATHER ROUNDUP
NATIONAL WEATHER SERVICE NORTHERN INDIANA
100 PM EDT WED APR 26 2017

NOTE: "FAIR" INDICATES FEW OR NO CLOUDS BELOW 12,000 FEET WITH NO
SIGNIFICANT WEATHER AND/OR OBSTRUCTIONS TO VISIBILITY.

* THESE STATIONS ARE NOT UNDER NWS QUALITY CONTROL. THEY ALSO MAY NOT
  REPORT WEATHER SUCH AS PRECIPITATION OR FOG.

INZ001>027-261800-
NORTHERN INDIANA

CITY           SKY/WX    TMP DP  RH WIND       PRES   REMARKS
GARY*          PTSUNNY   77  52  41 SW17G31   29.47R
VALPARAISO     PTSUNNY   79  59  50 S20G33    29.48R
MICHIGAN CITY* PTSUNNY   77  59  53 S17G25    29.47R
LAPORTE*       MOSUNNY   78  59  52 S18G26    29.49R
KNOX*          SUNNY     79  32  18 S25       29.48R
SOUTH BEND     SUNNY     76  60  57 S20G25    29.48S
ELKHART*       SUNNY     77  59  53 S9        29.49S SMOKE
GOSHEN         SUNNY     77  58  51 S24G33    29.49F
MONTICELLO*    SUNNY     78  59  51 S16G23    29.50R
LOGANSPORT*    SUNNY     77  59  53 S24G30    29.52S
ROCHESTER*     SUNNY     79  59  50 S18G26    29.52R
WARSAW*        SUNNY     77  59  53 S12G20    29.51F
ANGOLA*        SUNNY     75  70  83 S23       29.54F
FORT WAYNE     MOSUNNY   80  60  50 S23G30    29.56F
HUNTINGTON*    MOSUNNY  N/A N/A N/A S16G23    29.54F
PERU/GRISSOM   SUNNY     78  62  57 S21G30    29.51S
MARION*        SUNNY     77  59  53 S25G32    29.55F

$$
INZ028>050-261800-
CENTRAL INDIANA

CITY           SKY/WX    TMP DP  RH WIND       PRES   REMARKS
LAFAYETTE      SUNNY     79  59  50 SW14G25   29.51R
KOKOMO*        SUNNY     79  61  53 S25       29.54F
MUNCIE*        SUNNY     79  58  48 S21G31    29.57F
INDIANAPOLIS   MOSUNNY   78  62  57 S20G25    29.55F

$$
MIZ043>046-050>051-056>058-064>065-071>073-077>080-261800-
SOUTHWEST LOWER MICHIGAN

CITY           SKY/WX    TMP DP  RH WIND       PRES   REMARKS
BATTLE CREEK   MOSUNNY   75  57  53 SE21G33   29.52F
BENTON HARBOR  SUNNY     78  58  49 S14G26    29.45F
COLDWATER*     SUNNY     75  57  54 SE15G28   29.53F
HILLSDALE*     SUNNY     73  55  53 SE10G25   29.57S
HOLLAND        MOSUNNY   77  58  51 S18G26    29.45F
GRAND RAPIDS   PTSUNNY   76  57  51 SE20G28   29.48F
KALAMAZOO      MOSUNNY   77  56  48 SE16G25   29.49F
STURGIS*       MOSUNNY   76  59  55 S20G30    29.50F
THREE RIVERS*  FAIR      76  59  56 S15G23    29.50F

$$
OHZ001>008-015>018-024>025-261800-
NORTHWEST OHIO

CITY           SKY/WX    TMP DP  RH WIND       PRES   REMARKS
WAUSEON*       FAIR      81  57  44 S23       29.58F
DEFIANCE       SUNNY     76  56  49 S18G29    29.58F
FINDLAY        MOSUNNY   79  56  45 S20G26    29.62F
TOLEDO EXPRESS SUNNY     77  57  50 S14G24    29.60F
TOLEDO METCALF SUNNY     77  59  53 S17G24    29.63F
LIMA           MOSUNNY   77  55  46 S18G28    29.62F

$$
AND FOR LAKE MICHIGAN COASTAL AND OPEN LAKE BUOY OBSERVATIONS

STATION/POSITION TEMP    WIND        PRES    VSBY  WAVE
                 AIR SEA DIR/SP/G                  HT/PER
                 (F)     (DEG/KT/KT) (MB)    (MI)  (FT/S)
CALUMET HARBOR    73     210/ 11/ 18  997.0R
MICHIGAN CITY     75     160/ 19/ 22   N/A
BURNS HARBOR      74     210/ 21/ 29  998.0R
SOUTH LAKE BUOY   49 41  120/ 10/ 12  997.0          2/ 4
4 MI NW BRIDGMAN  65 49  180/ 14/ 17  997.4          2/ 3
MICHIGAN CITY     67 49                N/A           2/ 3

$$
&&



USA.gov is the U.S. government's official web portal to all federal, state and local government web resources and services.